Weather History for Anniston, AL

Change the Weather History Date:

Tuesday, January 8, 2013

  Actual Average Record
Temperature  
Mean Temperature 50 °F 43 °F  
Max Temperature 61 °F 53 °F 74 °F (1946)
Min Temperature 39 °F 33 °F 10 °F (1970)
Degree Days  
Heating Degree Days 15    
Month to date heating degree days 177  
Since 1 July heating degree days 1221  
Moisture  
Dew Point 39 °F    
Average Humidity 64    
Maximum Humidity 77    
Minimum Humidity 51    
Precipitation  
Precipitation 0.00 in 0.13 in 3.98 in (1953)
Month to date precipitation 1.35 1.01  
Year to date precipitation 1.35 1.01  
Sea Level Pressure  
Sea Level Pressure 30.31 in    
Wind  
Wind Speed 8 mph (ENE)    
Max Wind Speed 13 mph    
Max Gust Speed 16 mph    
Visibility 10 miles    
Events      
T = Trace of Precipitation, MM = Missing Value Source: NWS Daily Summary

Daily Weather History Graph

Daily Weather History Graph

Search for Another Location

Airport:

Trip Planner

Search our weather history database for the weather conditions in past years. The results will help you decide how hot, cold, wet, or windy it might be!

Date:

Astronomy

Jan. 08, 2013 Rise Set
Actual Time 6:48 AM CST 4:52 PM CST
Civil Twilight 6:21 AM CST 5:19 PM CST
Nautical Twilight 5:50 AM CST 5:50 PM CST
Astronomical Twilight 5:20 AM CST 6:20 PM CST
Moon 3:21 AM CST (1/8) 1:53 PM CST (1/8)
Length of Visible Light 10h 58m
Length of Day
10h 03m
Waning Crescent, 13% of the Moon is Illuminated
Jan 8
Waning Crescent
Jan 11
New
Jan 18
First Quarter
Jan 26
Full
Feb 3
Last Quarter

Hourly Weather History & Observations

Time (CST) Temp. Windchill Dew Point Humidity Pressure Visibility Wind Dir Wind Speed Gust Speed Precip Events Conditions
12:53 AM 39.9 °F 35.8 °F 30.9 °F 70% 30.30 in 10.0 mi NNE 5.8 mph - N/A   Clear
1:53 AM 39.0 °F 34.8 °F 30.9 °F 73% 30.30 in 10.0 mi NE 5.8 mph - N/A   Clear
2:53 AM 39.0 °F 34.8 °F 30.9 °F 73% 30.30 in 10.0 mi NE 5.8 mph - N/A   Clear
3:53 AM 39.9 °F 36.7 °F 30.9 °F 70% 30.30 in 10.0 mi NE 4.6 mph - N/A   Clear
4:53 AM 39.9 °F 35.8 °F 32.0 °F 73% 30.30 in 10.0 mi NE 5.8 mph - N/A   Partly Cloudy
5:53 AM 41.0 °F 37.1 °F 32.0 °F 70% 30.33 in 10.0 mi NE 5.8 mph - N/A   Clear
6:53 AM 41.0 °F 36.4 °F 32.0 °F 70% 30.35 in 10.0 mi ENE 6.9 mph - N/A   Clear
7:53 AM 43.0 °F 38.2 °F 33.1 °F 68% 30.38 in 10.0 mi ENE 8.1 mph - N/A   Mostly Cloudy
8:53 AM 45.0 °F 40.6 °F 33.1 °F 63% 30.38 in 10.0 mi ENE 8.1 mph - N/A   Overcast
9:53 AM 48.0 °F - 34.0 °F 58% 30.38 in 10.0 mi ENE 10.4 mph - N/A   Partly Cloudy
10:53 AM 53.1 °F - 37.0 °F 55% 30.35 in 10.0 mi East 8.1 mph - N/A   Mostly Cloudy
11:53 AM 55.9 °F - 39.9 °F 55% 30.33 in 10.0 mi East 9.2 mph - N/A   Overcast
12:53 PM 57.9 °F - 42.1 °F 56% 30.30 in 10.0 mi East 6.9 mph - N/A   Overcast
1:53 PM 59.0 °F - 43.0 °F 55% 30.27 in 10.0 mi East 9.2 mph - N/A   Clear
2:53 PM 60.1 °F - 44.1 °F 55% 30.27 in 10.0 mi ENE 8.1 mph - N/A   Partly Cloudy
3:53 PM 60.1 °F - 43.0 °F 53% 30.27 in 10.0 mi ENE 9.2 mph - N/A   Overcast
4:53 PM 57.0 °F - 43.0 °F 59% 30.29 in 10.0 mi ENE 5.8 mph - N/A   Scattered Clouds
5:53 PM 55.0 °F - 44.1 °F 67% 30.30 in 10.0 mi ENE 3.5 mph - N/A   Mostly Cloudy
6:53 PM 55.0 °F - 44.1 °F 67% 30.30 in 10.0 mi ENE 8.1 mph - N/A   Mostly Cloudy
7:53 PM 54.0 °F - 45.0 °F 72% 30.32 in 10.0 mi ENE 10.4 mph - N/A   Overcast
8:50 PM 53.6 °F - 44.6 °F 72% 30.30 in 10.0 mi ENE 10.4 mph - N/A   Overcast
8:53 PM 53.1 °F - 45.0 °F 74% 30.31 in 10.0 mi ENE 6.9 mph - N/A   Overcast
9:53 PM 53.1 °F - 45.0 °F 74% 30.30 in 10.0 mi ENE 10.4 mph - N/A   Overcast
10:02 PM 51.8 °F - 44.6 °F 76% 30.30 in 10.0 mi ENE 8.1 mph - N/A   Overcast
10:53 PM 52.0 °F - 45.0 °F 77% 30.30 in 10.0 mi ENE 9.2 mph - N/A   Overcast
11:53 PM 52.0 °F - 45.0 °F 77% 30.31 in 9.0 mi NE 8.1 mph - N/A   Overcast